KJ4UBX-11 Weather Reports


time (UTC)temp
C
wind
direction
speed
KPH
gust
KPH
rain 1hr
cm
rain 24hr
cm
rain mn
cm
humidity
%
barometer
mb
20260506114131 17 0.0 0.0 0.00 0.00 0.00 69 1008.1
20260506113148 18 0.0 0.0 0.00 0.00 0.00 71 1008.2
20260506112205 17 0.0 0.0 0.00 0.00 0.00 69 1008.0
20260506111220 17 0.0 0.0 0.00 0.00 0.00 72 1008.4
20260506110237 17 0.0 0.0 0.00 0.00 0.00 77 1008.2
20260506105253 16 0.0 0.0 0.00 0.00 0.00 75 1008.2
20260506104309 16 0.0 0.0 0.00 0.00 0.00 77 1008.2
20260506103326 15 0.0 0.0 0.00 0.00 0.00 79 1007.9
20260506102342 15 0.0 0.0 0.00 0.00 0.00 78 1007.8
20260506101357 15 0.0 0.0 0.00 0.00 0.00 79 1008.0
20260506100414 15 0.0 0.0 0.00 0.00 0.00 81 1007.7
20260506095430 15 0.0 0.0 0.00 0.00 0.00 81 1007.9
20260506094446 15 0.0 0.0 0.00 0.00 0.00 82 1007.7
20260506093504 15 0.0 0.0 0.00 0.00 0.00 82 1007.7
20260506092520 15 0.0 0.0 0.00 0.00 0.00 81 1007.7
20260506091538 15 0.0 0.0 0.00 0.00 0.00 81 1007.6
20260506090555 15 0.0 0.0 0.00 0.00 0.00 80 1007.6
20260506085612 15 0.0 0.0 0.00 0.00 0.00 79 1007.6
20260506084630 15 0.0 0.0 0.00 0.00 0.00 77 1007.5
20260506083646 15 0.0 0.0 0.00 0.00 0.00 77 1007.5
20260506082703 15 0.0 0.0 0.00 0.00 0.00 76 1007.3
20260506081720 15 0.0 0.0 0.00 0.00 0.00 76 1007.3
20260506080738 15 0.0 0.0 0.00 0.00 0.00 75 1007.3
20260506072844 15 0.0 0.0 0.00 0.00 0.00 74 1007.2
20260506071903 16 0.0 0.0 0.00 0.00 0.00 73 1007.2
20260506070916 16 0.0 0.0 0.00 0.00 0.00 73 1007.1
20260506062039 16 0.0 0.0 0.00 0.00 0.00 74 1006.8
20260506061056 16 0.0 0.0 0.00 0.00 0.00 74 1006.8
20260506060114 16 0.0 0.0 0.00 0.00 0.00 73 1006.7
20260506051239 15 0.0 0.0 0.00 0.00 0.00 74 1006.7
20260506050254 15 0.0 0.0 0.00 0.00 0.00 77 1006.8
20260506044326 15 0.0 0.0 0.00 0.00 0.00 77 1006.9
20260506043344 15 0.0 0.0 0.00 0.00 0.00 76 1006.8
20260506042401 15 0.0 0.0 0.00 0.00 0.00 75 1007.0
20260506041419 15 0.0 0.0 0.00 0.00 0.00 74 1006.9
20260506040435 15 0.0 0.0 0.00 0.00 0.00 75 1006.8
20260506035452 15 0.0 0.0 0.00 0.00 0.00 74 1006.5
20260506034509 15 0.0 0.0 0.00 0.00 0.00 74 1006.7
20260506033526 15 0.0 0.0 0.00 0.00 0.00 73 1006.6
20260506032542 15 0.0 0.0 0.00 0.00 0.00 72 1006.5
20260506031600 16 0.0 0.0 0.00 0.00 0.00 71 1006.5
20260506030618 16 0.0 0.0 0.00 0.00 0.00 68 1006.5
20260506025635 16 0.0 0.0 0.00 0.00 0.00 67 1006.5
20260506024653 17 0.0 0.0 0.00 0.00 0.00 67 1006.6
20260506023710 17 0.0 0.0 0.00 0.00 0.00 66 1006.7
20260506022728 17 0.0 0.0 0.00 0.00 0.00 64 1006.6
20260506021745 17 0.0 0.0 0.00 0.00 0.00 64 1006.8
20260506020802 17 0.0 0.0 0.00 0.00 0.00 63 1006.7
20260506015818 17 0.0 0.0 0.00 0.00 0.00 63 1006.8
20260506014835 18 0.0 0.0 0.00 0.00 0.00 61 1006.7
20260506013852 18 0.0 0.0 0.00 0.00 0.00 62 1006.8
20260506012908 18 0.0 0.0 0.00 0.00 0.00 61 1006.6
20260506011926 18 0.0 0.0 0.00 0.00 0.00 61 1006.8
20260506010943 18 0.0 0.0 0.00 0.00 0.00 62 1006.6
20260506010000 18 0.0 0.0 0.00 0.00 0.00 61 1006.5
20260506005017 18 0.0 0.0 0.00 0.00 0.00 60 1006.4
20260506004034 18 0.0 0.0 0.00 0.00 0.00 60 1006.4
20260506003051 19 0.0 0.0 0.00 0.00 0.00 58 1006.1
20260506002109 19 0.0 0.0 0.00 0.00 0.00 57 1005.8
20260506001125 20 0.0 0.0 0.00 0.00 0.00 57 1005.6
20260506000143 20 0.0 0.0 0.00 0.00 0.00 56 1005.0
20260505235200 20 0.0 0.0 0.00 0.00 0.00 55 1004.9
20260505234217 21 0.0 0.0 0.00 0.00 0.00 55 1005.1
20260505233234 21 0.0 0.0 0.00 0.00 0.00 54 1005.2
20260505232251 21 0.0 0.0 0.00 0.00 0.00 54 1005.1
20260505231306 20 0.0 0.0 0.00 0.00 0.00 54 1005.1
20260505230322 20 0.0 0.0 0.00 0.00 0.00 55 1005.0
20260505225340 20 0.0 0.0 0.00 0.00 0.00 52 1003.7
20260505224356 20 0.0 0.0 0.00 0.00 0.00 52 1003.4
20260505223415 21 0.0 0.0 0.00 0.00 0.00 51 1003.3
20260505222432 21 0.0 0.0 0.00 0.00 0.00 51 1003.1
20260505221449 21 0.0 0.0 0.00 0.00 0.00 50 1003.0
20260505220506 21 0.0 0.0 0.00 0.00 0.00 50 1002.9
20260505215523 22 0.0 0.0 0.00 0.00 0.00 50 1002.9
20260505214539 22 0.0 0.0 0.00 0.00 0.00 50 1002.9
20260505213557 22 0.0 0.0 0.00 0.00 0.00 50 1002.9
20260505212613 22 0.0 0.0 0.00 0.00 0.00 50 1002.6
20260505211630 22 0.0 0.0 0.00 0.00 0.00 49 1002.7
20260505210647 22 0.0 0.0 0.00 0.00 0.00 48 1002.7
20260505205705 23 0.0 0.0 0.00 0.00 0.00 47 1002.7
20260505204722 23 0.0 0.0 0.00 0.00 0.00 47 1002.6
20260505202745 23 0.0 0.0 0.00 0.00 0.00 46 1002.7
20260505201801 23 0.0 0.0 0.00 0.00 0.00 48 1002.8
20260505200817 22 0.0 0.0 0.00 0.00 0.00 47 1002.9
20260505195834 23 0.0 0.0 0.00 0.00 0.00 48 1003.0
20260505194849 23 0.0 0.0 0.00 0.00 0.00 47 1003.1
20260505193905 22 0.0 0.0 0.00 0.00 0.00 50 1003.2
20260505192921 22 0.0 0.0 0.00 0.00 0.00 50 1003.4
20260505191936 21 0.0 0.0 0.00 0.00 0.00 51 1003.4
20260505190953 21 0.0 0.0 0.00 0.00 0.00 53 1003.8
20260505190011 21 0.0 0.0 0.00 0.00 0.00 51 1003.9
20260505185028 22 0.0 0.0 0.00 0.00 0.00 50 1004.0
20260505184044 22 0.0 0.0 0.00 0.00 0.00 52 1004.0
20260505183101 22 0.0 0.0 0.00 0.00 0.00 51 1004.2
20260505182118 22 0.0 0.0 0.00 0.00 0.00 52 1004.3
20260505181135 22 0.0 0.0 0.00 0.00 0.00 51 1004.3
20260505180150 22 0.0 0.0 0.00 0.00 0.00 52 1004.4
20260505175205 21 0.0 0.0 0.00 0.00 0.00 53 1004.4
20260505174222 21 0.0 0.0 0.00 0.00 0.00 52 1004.6
20260505173239 21 0.0 0.0 0.00 0.00 0.00 52 1004.8
20260505172257 21 0.0 0.0 0.00 0.00 0.00 52 1004.9
20260505171313 21 0.0 0.0 0.00 0.00 0.00 50 1005.1
20260505170331 22 0.0 0.0 0.00 0.00 0.00 50 1005.2
20260505165348 22 0.0 0.0 0.00 0.00 0.00 46 1005.3
20260505164403 21 0.0 0.0 0.00 0.00 0.00 48 1005.6
20260505163421 22 0.0 0.0 0.00 0.00 0.00 47 1005.7
20260505162438 21 0.0 0.0 0.00 0.00 0.00 51 1006.0
20260505161454 22 0.0 0.0 0.00 0.00 0.00 46 1006.0
20260505160512 23 0.0 0.0 0.00 0.00 0.00 44 1006.1
20260505152639 31 0.0 0.0 0.00 0.00 0.00 30 1006.5
20260505151652 31 0.0 0.0 0.00 0.00 0.00 31 1006.8
20260505150700 27 0.0 0.0 0.00 0.00 0.00 36 1006.9
20260505124124 30 0.0 0.0 0.00 0.00 0.00 31 1006.6
20260505123138 31 0.0 0.0 0.00 0.00 0.00 30 1006.5
20260505122152 29 0.0 0.0 0.00 0.00 0.00 33 1006.6
20260505121202 25 0.0 0.0 0.00 0.00 0.00 40 1006.6
20260505120212 21 0.0 0.0 0.00 0.00 0.00 48 1007.0
20260505115225 19 0.0 0.0 0.00 0.00 0.00 53 1007.0